sat.trackr.live / text

‹ back to catalog

QIANFAN-90

NORAD 63176 · 2025-046T

PAYLOAD ACTIVE UNKNOWN

§ Identity

Operator
Country
PRC
Launch date
2025-03-11
Launch site
WSC
Launch vehicle
Mass (kg)
RCS (m²)

External: N2YO · Heavens-Above · Gunter

§ Orbital elements

Epoch: 2026-05-25T03:23:36.882240Z

Period
106.59 min
Inclination
88.9692°
Eccentricity
0.0013847
Mean motion
13.51010591 rev/d
Perigee alt
1,058.2 km
Apogee alt
1,078.9 km
Semi-major
7,446.7 km
B*
1.5128e-4
RAAN
303.0734°
Arg perigee
20.7091°
Mean anomaly
339.4618°
Rev number
6,948

§ Raw data

QIANFAN-901 63176U 25046T   26145.14139910  .00000110  00000+0  15128-3 0  99972 63176  88.9692 303.0734 0013847  20.7091 339.4618 13.51010591 69486

JSON: /api/v1/satellites/63176 · /tle

For live sub-satellite position, see the globe view (requires WebGL).

§ Visibility from observer

Set your observer location to see the next 7 days of passes ≥ 10°. The values pass through the URL so the page stays shareable.

No JS? Fill the form by hand. The geolocation button needs JavaScript.